Volver al catálogo

STARLINK-36237

ActivoComunicacionesVLEO
NORAD 68337·PAYLOAD·🇺🇸 United States

Lanzado Mar 22, 2026 desde Cape Canaveral Space Force Station

Loading…

Próximos Pases (próximas 24 horas)

TLE

ActualizadoSource: CelesTrak SupGP

Época: Sep 14, 2026, 21:00 UTC

1 68337C 26059S   26257.87548611  .00007387  00000+0  21815-3 0  2572
2 68337  53.1587 181.8496 0001363 104.5674  71.8122 15.34400728    11

Sigue STARLINK-36237 en tiempo real con AllMySat

Download on the App Store